This is the latest recevied weather packets stored in our database for station/object OK1FET-5. If no packets are shown the sender has not sent any weather packets the latest 10 day(s).
| Time | Temp. | Humidity | Pressure | Rain* | Wind** | Luminosity | Snow |
|---|---|---|---|---|---|---|---|
| 1777602532 | 3.33° C | 46% | 1030.1 hPa | - | - | - | - |
| 1777602239 | 3.33° C | 50% | 1030.1 hPa | - | - | - | - |
| 1777601945 | 3.89° C | 51% | 1030 hPa | - | - | - | - |
| 1777601651 | 3.89° C | 48% | 1030 hPa | - | - | - | - |
| 1777601357 | 3.89° C | 52% | 1030.1 hPa | - | - | - | - |
| 1777601064 | 4.44° C | 48% | 1030 hPa | - | - | - | - |
| 1777600770 | 4.44° C | 47% | 1030 hPa | - | - | - | - |
| 1777600476 | 4.44° C | 49% | 1029.9 hPa | - | - | - | - |
| 1777600183 | 5° C | 53% | 1029.9 hPa | - | - | - | - |
| 1777599889 | 5° C | 51% | 1029.9 hPa | - | - | - | - |
| 1777599595 | 5.56° C | 47% | 1029.9 hPa | - | - | - | - |
| 1777599301 | 5.56° C | 46% | 1029.8 hPa | - | - | - | - |
| 1777599008 | 6.11° C | 45% | 1029.8 hPa | - | - | - | - |
| 1777598713 | 5.56° C | 46% | 1029.7 hPa | - | - | - | - |
| 1777598420 | 5.56° C | 46% | 1029.6 hPa | - | - | - | - |
| 1777598126 | 5.56° C | 46% | 1029.7 hPa | - | - | - | - |
| 1777597538 | 5° C | 45% | 1029.7 hPa | - | - | - | - |
| 1777597244 | 5° C | 45% | 1029.8 hPa | - | - | - | - |
| 1777596951 | 5° C | 48% | 1029.9 hPa | - | - | - | - |
| 1777596657 | 5° C | 51% | 1029.8 hPa | - | - | - | - |
| 1777596363 | 5° C | 52% | 1029.8 hPa | - | - | - | - |
| 1777596069 | 5° C | 57% | 1029.8 hPa | - | - | - | - |
| 1777595775 | 5° C | 52% | 1029.8 hPa | - | - | - | - |
| 1777595482 | 5.56° C | 52% | 1029.7 hPa | - | - | - | - |
| 1777595188 | 6.11° C | 49% | 1029.7 hPa | - | - | - | - |
* Rain since midnight (hover to see other rain measurements)
** Current wind speed in m/s (hover to see current wind gust speed)